Time,TemperatureF,DewpointF,PressureIn,WindDirection,WindDirectionDegrees,WindSpeedMPH,WindSpeedGustMPH,Humidity,HourlyPrecipIn,Conditions,Clouds,dailyrainin,SoftwareType,DateUTC
2013-01-20 00:00:00,50.5,40.7,29.83,SSW,202,0.0,2.9,69,0.00,,---,0.00,VWS V13.01,2013-01-19 22:00:00,
2013-01-20 00:05:00,50.4,40.6,29.83,SSW,202,1.3,1.3,69,0.00,,---,0.00,VWS V13.01,2013-01-19 22:05:00,
2013-01-20 00:10:00,50.4,40.6,29.83,WSW,247,2.2,2.5,69,0.00,,---,0.00,VWS V13.01,2013-01-19 22:10:00,
2013-01-20 00:15:00,50.2,40.8,29.83,SW,225,0.0,4.5,70,0.00,,---,0.00,VWS V13.01,2013-01-19 22:15:00,
2013-01-20 00:21:00,50.2,40.8,29.82,SW,225,1.6,6.0,70,0.00,,---,0.00,VWS V13.01,2013-01-19 22:21:00,
2013-01-20 00:26:00,50.0,40.6,29.83,South,180,0.0,2.9,70,0.00,,---,0.00,VWS V13.01,2013-01-19 22:26:00,
2013-01-20 00:31:00,49.8,40.4,29.83,SW,225,3.1,4.5,70,0.00,,---,0.00,VWS V13.01,2013-01-19 22:31:00,
2013-01-20 00:37:00,49.8,40.8,29.83,South,180,0.0,1.3,71,0.00,,---,0.00,VWS V13.01,2013-01-19 22:37:00,
2013-01-20 00:42:00,49.8,40.8,29.83,South,180,0.0,3.4,71,0.00,,---,0.00,VWS V13.01,2013-01-19 22:42:00,
2013-01-20 00:48:00,49.8,40.8,29.82,South,180,0.0,2.5,71,0.00,,---,0.00,VWS V13.01,2013-01-19 22:48:00,
2013-01-20 00:53:00,49.8,40.8,29.83,WSW,247,0.0,2.9,71,0.00,,---,0.00,VWS V13.01,2013-01-19 22:53:00,
2013-01-20 00:58:00,49.8,41.2,29.83,SW,225,0.0,1.3,72,0.00,,---,0.00,VWS V13.01,2013-01-19 22:58:00,
2013-01-20 01:03:00,49.6,41.0,29.83,WSW,247,2.0,2.0,72,0.00,,---,0.00,VWS V13.01,2013-01-19 23:03:00,
2013-01-20 01:09:00,49.6,41.0,29.83,South,180,0.0,2.9,72,0.00,,---,0.00,VWS V13.01,2013-01-19 23:09:00,
2013-01-20 01:14:00,49.6,41.3,29.82,SSW,202,0.0,3.4,73,0.00,,---,0.00,VWS V13.01,2013-01-19 23:14:00,
2013-01-20 01:19:00,49.6,41.3,29.83,SSW,202,2.5,2.5,73,0.00,,---,0.00,VWS V13.01,2013-01-19 23:19:00,
2013-01-20 01:24:00,49.6,41.3,29.83,SSW,202,2.9,2.9,73,0.00,,---,0.00,VWS V13.01,2013-01-19 23:24:00,
2013-01-20 01:29:00,49.6,41.3,29.83,WSW,247,0.0,2.9,73,0.00,,---,0.00,VWS V13.01,2013-01-19 23:29:00,
2013-01-20 01:34:00,49.3,41.0,29.82,SSW,202,0.0,2.9,73,0.00,,---,0.00,VWS V13.01,2013-01-19 23:34:00,
2013-01-20 01:39:00,49.3,41.0,29.83,SSE,157,0.0,2.9,73,0.00,,---,0.00,VWS V13.01,2013-01-19 23:39:00,
2013-01-20 01:44:00,49.3,41.0,29.83,SSE,157,0.0,2.9,73,0.00,,---,0.00,VWS V13.01,2013-01-19 23:44:00,
2013-01-20 01:49:00,49.1,40.8,29.83,SSE,157,0.0,2.9,73,0.00,,---,0.00,VWS V13.01,2013-01-19 23:49:00,
2013-01-20 01:55:00,48.9,41.0,29.83,SSE,157,0.0,2.9,74,0.00,,---,0.00,VWS V13.01,2013-01-19 23:55:00,
2013-01-20 02:00:00,48.9,41.0,29.82,South,180,0.0,0.7,74,0.00,,---,0.00,VWS V13.01,2013-01-20 00:00:00,
2013-01-20 02:06:00,48.7,40.8,29.83,South,180,0.0,0.7,74,0.00,,---,0.00,VWS V13.01,2013-01-20 00:06:00,
2013-01-20 02:11:00,48.7,40.8,29.82,SSE,157,0.0,0.7,74,0.00,,---,0.00,VWS V13.01,2013-01-20 00:11:00,
2013-01-20 02:17:00,48.7,40.8,29.82,South,180,0.0,0.7,74,0.00,,---,0.00,VWS V13.01,2013-01-20 00:17:00,
2013-01-20 02:22:00,48.7,40.8,29.83,South,180,0.0,0.7,74,0.00,,---,0.00,VWS V13.01,2013-01-20 00:22:00,
2013-01-20 02:27:00,48.7,41.1,29.82,South,180,0.0,2.2,75,0.00,,---,0.00,VWS V13.01,2013-01-20 00:27:00,
2013-01-20 02:33:00,48.6,41.0,29.82,SSE,157,0.0,1.3,75,0.00,,---,0.00,VWS V13.01,2013-01-20 00:33:00,
2013-01-20 02:38:00,48.6,41.0,29.83,SSW,202,0.0,1.3,75,0.00,,---,0.00,VWS V13.01,2013-01-20 00:38:00,
2013-01-20 02:43:00,48.6,41.0,29.83,SW,225,0.0,3.4,75,0.00,,---,0.00,VWS V13.01,2013-01-20 00:43:00,
2013-01-20 02:48:00,48.6,41.0,29.83,West,270,0.0,2.2,75,0.00,,---,0.00,VWS V13.01,2013-01-20 00:48:00,
2013-01-20 02:53:00,48.7,41.1,29.83,WSW,247,3.8,7.2,75,0.00,,---,0.00,VWS V13.01,2013-01-20 00:53:00,
2013-01-20 02:59:00,48.7,41.1,29.84,SSW,202,0.0,6.3,75,0.00,,---,0.00,VWS V13.01,2013-01-20 00:59:00,
2013-01-20 03:04:00,48.7,41.1,29.84,SSW,202,2.0,2.9,75,0.00,,---,0.00,VWS V13.01,2013-01-20 01:04:00,
2013-01-20 03:09:00,48.7,41.1,29.84,SSE,157,0.0,2.7,75,0.00,,---,0.00,VWS V13.01,2013-01-20 01:09:00,
2013-01-20 03:15:00,48.9,41.3,29.84,SSW,202,0.0,1.1,75,0.00,,---,0.00,VWS V13.01,2013-01-20 01:15:00,
2013-01-20 03:20:00,48.9,41.3,29.84,WNW,292,0.0,2.0,75,0.00,,---,0.00,VWS V13.01,2013-01-20 01:20:00,
2013-01-20 03:25:00,48.9,41.3,29.84,SW,225,2.9,3.6,75,0.00,,---,0.00,VWS V13.01,2013-01-20 01:25:00,
2013-01-20 03:30:00,48.9,41.7,29.84,West,270,0.0,2.2,76,0.00,,---,0.00,VWS V13.01,2013-01-20 01:30:00,
2013-01-20 03:35:00,48.9,41.3,29.84,SW,225,0.0,1.1,75,0.00,,---,0.00,VWS V13.01,2013-01-20 01:35:00,
2013-01-20 03:40:00,48.9,41.7,29.84,South,180,0.0,1.1,76,0.00,,---,0.00,VWS V13.01,2013-01-20 01:40:00,
2013-01-20 03:45:00,48.9,41.3,29.85,WSW,247,0.0,1.1,75,0.00,,---,0.00,VWS V13.01,2013-01-20 01:45:00,
2013-01-20 03:51:00,48.9,41.7,29.84,West,270,0.0,1.1,76,0.00,,---,0.00,VWS V13.01,2013-01-20 01:51:00,
2013-01-20 03:56:00,48.9,41.3,29.84,WSW,247,0.0,1.1,75,0.00,,---,0.00,VWS V13.01,2013-01-20 01:56:00,
2013-01-20 04:01:00,48.9,41.3,29.84,SE,135,0.0,1.1,75,0.00,,---,0.00,VWS V13.01,2013-01-20 02:01:00,
2013-01-20 04:07:00,48.9,41.3,29.84,West,270,0.0,1.1,75,0.00,,---,0.00,VWS V13.01,2013-01-20 02:07:00,
2013-01-20 04:12:00,48.9,41.3,29.84,North,0,0.0,1.1,75,0.00,,---,0.00,VWS V13.01,2013-01-20 02:12:00,
2013-01-20 04:17:00,48.9,41.3,29.84,North,0,0.0,1.1,75,0.00,,---,0.00,VWS V13.01,2013-01-20 02:17:00,
2013-01-20 04:23:00,48.9,41.3,29.83,North,0,0.0,1.1,75,0.00,,---,0.00,VWS V13.01,2013-01-20 02:23:00,
2013-01-20 04:28:00,48.9,41.3,29.84,North,0,0.0,1.1,75,0.00,,---,0.00,VWS V13.01,2013-01-20 02:28:00,
2013-01-20 04:33:00,48.9,41.3,29.84,NNE,22,0.0,1.1,75,0.00,,---,0.00,VWS V13.01,2013-01-20 02:33:00,
2013-01-20 04:39:00,48.9,41.3,29.84,NE,45,0.0,1.1,75,0.00,,---,0.00,VWS V13.01,2013-01-20 02:39:00,
2013-01-20 04:44:00,48.9,41.3,29.83,NNE,22,0.0,1.1,75,0.00,,---,0.00,VWS V13.01,2013-01-20 02:44:00,
2013-01-20 04:49:00,48.7,41.1,29.83,NE,45,0.0,1.1,75,0.00,,---,0.00,VWS V13.01,2013-01-20 02:49:00,
2013-01-20 05:50:00,48.2,40.7,29.84,East,90,0.0,3.8,75,0.00,,---,0.00,VWS V13.01,2013-01-20 03:50:00,
2013-01-20 05:55:00,48.2,40.7,29.84,North,0,0.0,3.8,75,0.00,,---,0.00,VWS V13.01,2013-01-20 03:55:00,
2013-01-20 06:00:00,48.2,41.0,29.85,North,0,0.0,3.8,76,0.00,,---,0.00,VWS V13.01,2013-01-20 04:00:00,
2013-01-20 06:05:00,48.2,41.0,29.85,NE,45,0.0,3.8,76,0.00,,---,0.00,VWS V13.01,2013-01-20 04:05:00,
2013-01-20 06:10:00,48.0,40.8,29.85,ESE,112,0.0,3.8,76,0.00,,---,0.00,VWS V13.01,2013-01-20 04:10:00,
2013-01-20 06:15:00,48.0,40.8,29.85,ESE,112,0.0,3.8,76,0.00,,---,0.00,VWS V13.01,2013-01-20 04:15:00,
2013-01-20 06:20:00,48.0,40.8,29.85,NNW,337,0.0,3.8,76,0.00,,---,0.00,VWS V13.01,2013-01-20 04:20:00,
2013-01-20 06:25:00,48.0,40.8,29.85,NNW,337,0.0,1.8,76,0.00,,---,0.00,VWS V13.01,2013-01-20 04:25:00,
2013-01-20 06:31:00,48.0,40.8,29.85,North,0,0.0,1.8,76,0.00,,---,0.00,VWS V13.01,2013-01-20 04:31:00,
2013-01-20 06:36:00,48.0,41.2,29.85,NNE,22,0.0,1.8,77,0.00,,---,0.00,VWS V13.01,2013-01-20 04:36:00,
2013-01-20 06:41:00,48.0,41.2,29.86,North,0,0.0,1.8,77,0.00,,---,0.00,VWS V13.01,2013-01-20 04:41:00,
2013-01-20 06:46:00,47.8,41.0,29.87,North,0,0.0,1.8,77,0.00,,---,0.00,VWS V13.01,2013-01-20 04:46:00,
2013-01-20 06:51:00,47.8,41.0,29.87,North,0,0.0,1.8,77,0.00,,---,0.00,VWS V13.01,2013-01-20 04:51:00,
2013-01-20 06:57:00,47.8,41.0,29.87,NNE,22,0.0,1.8,77,0.00,,---,0.00,VWS V13.01,2013-01-20 04:57:00,
2013-01-20 07:00:00,47.8,41.0,29.86,NNE,22,0.0,1.8,77,0.00,,---,0.00,VWS V13.01,2013-01-20 05:00:00,
2013-01-20 07:01:00,47.7,40.8,29.87,North,0,0.0,1.8,77,0.00,,---,0.00,VWS V13.01,2013-01-20 05:01:00,
2013-01-20 07:03:00,47.8,41.0,29.87,North,0,0.0,1.8,77,0.00,,---,0.00,VWS V13.01,2013-01-20 05:03:00,
2013-01-20 07:08:00,47.7,40.8,29.87,North,0,0.0,1.8,77,0.00,,---,0.00,VWS V13.01,2013-01-20 05:08:00,
2013-01-20 07:13:00,47.7,40.8,29.87,North,0,0.0,1.8,77,0.00,,---,0.00,VWS V13.01,2013-01-20 05:13:00,
2013-01-20 07:18:00,47.7,40.8,29.88,North,0,0.0,1.8,77,0.00,,---,0.00,VWS V13.01,2013-01-20 05:18:00,
2013-01-20 07:23:00,47.8,41.0,29.88,NNE,22,0.0,2.5,77,0.00,,---,0.00,VWS V13.01,2013-01-20 05:23:00,
2013-01-20 07:28:00,47.8,41.0,29.88,NNE,22,0.0,2.5,77,0.00,,---,0.00,VWS V13.01,2013-01-20 05:28:00,
2013-01-20 07:33:00,47.8,41.3,29.88,North,0,0.0,2.5,78,0.00,,---,0.00,VWS V13.01,2013-01-20 05:33:00,
2013-01-20 07:38:00,47.8,41.3,29.88,NNE,22,0.0,2.5,78,0.00,,---,0.00,VWS V13.01,2013-01-20 05:38:00,
2013-01-20 07:43:00,47.8,41.3,29.88,NNE,22,0.0,2.5,78,0.00,,---,0.00,VWS V13.01,2013-01-20 05:43:00,
2013-01-20 07:48:00,47.8,41.3,29.89,North,0,0.0,2.5,78,0.00,,---,0.00,VWS V13.01,2013-01-20 05:48:00,
2013-01-20 07:53:00,47.8,41.3,29.88,NNE,22,0.0,2.5,78,0.00,,---,0.00,VWS V13.01,2013-01-20 05:53:00,
2013-01-20 07:58:00,47.8,41.3,29.89,NNW,337,0.0,1.3,78,0.00,,---,0.00,VWS V13.01,2013-01-20 05:58:00,
2013-01-20 08:03:00,47.8,41.6,29.90,North,0,0.7,2.2,79,0.00,,---,0.00,VWS V13.01,2013-01-20 06:03:00,
2013-01-20 08:08:00,47.8,41.6,29.89,North,0,0.0,1.8,79,0.00,,---,0.00,VWS V13.01,2013-01-20 06:08:00,
2013-01-20 08:13:00,47.8,41.6,29.90,North,0,0.0,1.1,79,0.00,,---,0.00,VWS V13.01,2013-01-20 06:13:00,
2013-01-20 08:18:00,47.8,41.6,29.89,NNE,22,0.0,1.6,79,0.00,,---,0.00,VWS V13.01,2013-01-20 06:18:00,
2013-01-20 08:23:00,47.8,41.6,29.89,NNW,337,0.0,1.6,79,0.00,,---,0.00,VWS V13.01,2013-01-20 06:23:00,
2013-01-20 08:28:00,48.0,41.8,29.89,NNW,337,0.0,1.6,79,0.00,,---,0.00,VWS V13.01,2013-01-20 06:28:00,
2013-01-20 08:33:00,48.0,41.8,29.89,NNE,22,0.0,2.7,79,0.00,,---,0.00,VWS V13.01,2013-01-20 06:33:00,
2013-01-20 08:38:00,48.0,41.8,29.89,NNE,22,0.0,1.3,79,0.00,,---,0.00,VWS V13.01,2013-01-20 06:38:00,
2013-01-20 08:43:00,48.0,41.8,29.89,NNE,22,0.0,0.9,79,0.00,,---,0.00,VWS V13.01,2013-01-20 06:43:00,
2013-01-20 08:48:00,48.0,41.8,29.89,NNE,22,0.0,1.6,79,0.00,,---,0.00,VWS V13.01,2013-01-20 06:48:00,
2013-01-20 08:53:00,48.2,42.0,29.90,NNE,22,0.9,2.9,79,0.00,,---,0.00,VWS V13.01,2013-01-20 06:53:00,
2013-01-20 08:58:00,48.4,42.2,29.90,NNW,337,0.0,2.7,79,0.00,,---,0.00,VWS V13.01,2013-01-20 06:58:00,
2013-01-20 09:03:00,48.4,42.5,29.90,ENE,67,0.0,2.7,80,0.00,,---,0.00,VWS V13.01,2013-01-20 07:03:00,
2013-01-20 09:08:00,48.6,42.7,29.90,NE,45,0.0,2.7,80,0.00,,---,0.00,VWS V13.01,2013-01-20 07:08:00,
2013-01-20 09:13:00,48.6,42.7,29.90,North,0,0.0,2.7,80,0.00,,---,0.00,VWS V13.01,2013-01-20 07:13:00,
2013-01-20 09:18:00,48.7,42.5,29.91,NNE,22,0.0,1.6,79,0.00,,---,0.00,VWS V13.01,2013-01-20 07:18:00,
2013-01-20 09:24:00,48.7,42.8,29.91,North,0,0.0,1.6,80,0.00,,---,0.00,VWS V13.01,2013-01-20 07:24:00,
2013-01-20 09:29:00,48.9,42.7,29.91,NNE,22,0.0,1.6,79,0.00,,---,0.00,VWS V13.01,2013-01-20 07:29:00,
2013-01-20 09:34:00,48.9,42.7,29.90,NNW,337,0.0,1.6,79,0.00,,---,0.00,VWS V13.01,2013-01-20 07:34:00,
2013-01-20 09:39:00,49.1,43.2,29.91,North,0,0.0,1.6,80,0.00,,---,0.00,VWS V13.01,2013-01-20 07:39:00,
2013-01-20 09:44:00,49.3,43.4,29.90,North,0,0.0,1.6,80,0.00,,---,0.00,VWS V13.01,2013-01-20 07:44:00,
2013-01-20 09:49:00,49.5,43.6,29.91,North,0,0.0,1.6,80,0.00,,---,0.00,VWS V13.01,2013-01-20 07:49:00,
2013-01-20 09:54:00,49.6,43.7,29.91,North,0,0.0,1.6,80,0.00,,---,0.00,VWS V13.01,2013-01-20 07:54:00,
2013-01-20 09:59:00,49.8,43.9,29.91,ENE,67,0.0,1.6,80,0.00,,---,0.00,VWS V13.01,2013-01-20 07:59:00,
2013-01-20 10:04:00,49.8,43.9,29.91,ENE,67,0.0,1.6,80,0.00,,---,0.00,VWS V13.01,2013-01-20 08:04:00,
2013-01-20 10:09:00,50.2,44.3,29.91,ENE,67,0.0,1.6,80,0.00,,---,0.00,VWS V13.01,2013-01-20 08:09:00,
2013-01-20 10:14:00,50.4,44.5,29.91,NNW,337,0.0,1.6,80,0.00,,---,0.00,VWS V13.01,2013-01-20 08:14:00,
2013-01-20 10:19:00,50.7,44.8,29.92,NNW,337,0.0,1.6,80,0.00,,---,0.00,VWS V13.01,2013-01-20 08:19:00,
2013-01-20 10:24:00,50.7,44.8,29.92,North,0,0.0,1.6,80,0.00,,---,0.00,VWS V13.01,2013-01-20 08:24:00,
2013-01-20 10:29:00,51.1,44.8,29.92,North,0,0.0,1.6,79,0.00,,---,0.00,VWS V13.01,2013-01-20 08:29:00,
2013-01-20 10:34:00,51.4,45.1,29.92,NNW,337,0.0,1.6,79,0.00,,---,0.00,VWS V13.01,2013-01-20 08:34:00,
2013-01-20 10:39:00,51.6,45.3,29.92,NW,315,0.0,1.6,79,0.00,,---,0.00,VWS V13.01,2013-01-20 08:39:00,
2013-01-20 10:44:00,51.6,45.3,29.93,NW,315,0.0,1.6,79,0.00,,---,0.00,VWS V13.01,2013-01-20 08:44:00,
2013-01-20 10:49:00,52.0,45.7,29.93,North,0,0.0,1.6,79,0.00,,---,0.00,VWS V13.01,2013-01-20 08:49:00,
2013-01-20 10:54:00,52.3,46.0,29.92,East,90,0.0,1.6,79,0.00,,---,0.00,VWS V13.01,2013-01-20 08:54:00,
2013-01-20 10:59:00,52.7,46.0,29.92,ESE,112,0.0,1.6,78,0.00,,---,0.00,VWS V13.01,2013-01-20 08:59:00,
2013-01-20 11:04:00,53.2,46.5,29.91,ESE,112,0.0,1.6,78,0.00,,---,0.00,VWS V13.01,2013-01-20 09:04:00,
2013-01-20 11:09:00,53.4,46.4,29.91,SSE,157,0.0,1.6,77,0.00,,---,0.00,VWS V13.01,2013-01-20 09:09:00,
2013-01-20 11:14:00,54.1,46.7,29.91,SE,135,0.0,1.6,76,0.00,,---,0.00,VWS V13.01,2013-01-20 09:14:00,
2013-01-20 11:19:00,54.7,46.9,29.91,NE,45,0.0,1.6,75,0.00,,---,0.00,VWS V13.01,2013-01-20 09:19:00,
2013-01-20 11:24:00,55.0,46.9,29.91,West,270,0.0,1.6,74,0.00,,---,0.00,VWS V13.01,2013-01-20 09:24:00,
2013-01-20 11:29:00,55.4,46.5,29.91,North,0,0.0,1.6,72,0.00,,---,0.00,VWS V13.01,2013-01-20 09:29:00,
2013-01-20 11:34:00,55.9,47.0,29.91,NW,315,0.0,1.6,72,0.00,,---,0.00,VWS V13.01,2013-01-20 09:34:00,
2013-01-20 11:39:00,56.3,46.7,29.91,NW,315,0.0,1.6,70,0.00,,---,0.00,VWS V13.01,2013-01-20 09:39:00,
2013-01-20 11:44:00,56.8,46.8,29.91,West,270,0.0,1.6,69,0.00,,---,0.00,VWS V13.01,2013-01-20 09:44:00,
2013-01-20 11:49:00,57.0,46.6,29.91,NW,315,0.0,1.6,68,0.00,,---,0.00,VWS V13.01,2013-01-20 09:49:00,
2013-01-20 11:54:00,57.4,46.9,29.90,SE,135,0.0,1.6,68,0.00,,---,0.00,VWS V13.01,2013-01-20 09:54:00,
2013-01-20 11:59:00,57.9,47.0,29.90,SE,135,0.0,3.4,67,0.00,,---,0.00,VWS V13.01,2013-01-20 09:59:00,
2013-01-20 12:04:00,58.6,47.3,29.90,SW,225,0.0,3.4,66,0.00,,---,0.00,VWS V13.01,2013-01-20 10:04:00,
2013-01-20 12:09:00,59.2,47.9,29.90,ESE,112,0.0,3.1,66,0.00,,---,0.00,VWS V13.01,2013-01-20 10:09:00,
2013-01-20 12:14:00,59.7,47.9,29.89,ENE,67,0.0,3.1,65,0.00,,---,0.00,VWS V13.01,2013-01-20 10:14:00,
2013-01-20 12:19:00,60.1,47.9,29.89,SE,135,0.0,1.6,64,0.00,,---,0.00,VWS V13.01,2013-01-20 10:19:00,
2013-01-20 12:24:00,60.6,48.4,29.90,West,270,0.0,1.8,64,0.00,,---,0.00,VWS V13.01,2013-01-20 10:24:00,
2013-01-20 12:29:00,61.0,48.3,29.90,ESE,112,0.0,2.2,63,0.00,,---,0.00,VWS V13.01,2013-01-20 10:29:00,
2013-01-20 12:34:00,61.3,48.6,29.89,SE,135,0.0,3.8,63,0.00,,---,0.00,VWS V13.01,2013-01-20 10:34:00,
2013-01-20 12:39:00,61.7,48.6,29.89,NE,45,0.0,1.1,62,0.00,,---,0.00,VWS V13.01,2013-01-20 10:39:00,
2013-01-20 12:45:00,61.9,48.8,29.89,SSE,157,2.5,6.0,62,0.00,,---,0.00,VWS V13.01,2013-01-20 10:45:00,
2013-01-20 12:50:00,62.2,48.6,29.89,South,180,1.1,3.6,61,0.00,,---,0.00,VWS V13.01,2013-01-20 10:50:00,
2013-01-20 12:55:00,62.4,48.3,29.89,South,180,0.0,2.7,60,0.00,,---,0.00,VWS V13.01,2013-01-20 10:55:00,
2013-01-20 13:00:00,62.4,48.3,29.89,NW,315,0.0,2.5,60,0.00,,---,0.00,VWS V13.01,2013-01-20 11:00:00,
2013-01-20 13:05:00,62.4,47.9,29.88,South,180,0.0,2.5,59,0.00,,---,0.00,VWS V13.01,2013-01-20 11:05:00,
2013-01-20 13:10:00,62.6,48.1,29.88,SSW,202,0.0,2.0,59,0.00,,---,0.00,VWS V13.01,2013-01-20 11:10:00,
2013-01-20 13:15:00,62.8,48.3,29.88,SSW,202,0.0,1.1,59,0.00,,---,0.00,VWS V13.01,2013-01-20 11:15:00,
2013-01-20 13:20:00,63.0,48.5,29.88,SE,135,0.0,3.8,59,0.00,,---,0.00,VWS V13.01,2013-01-20 11:20:00,
2013-01-20 13:25:00,63.0,48.5,29.88,South,180,0.0,3.8,59,0.00,,---,0.00,VWS V13.01,2013-01-20 11:25:00,
2013-01-20 13:30:00,63.1,48.6,29.88,SSE,157,0.0,5.8,59,0.00,,---,0.00,VWS V13.01,2013-01-20 11:30:00,
2013-01-20 13:35:00,63.3,48.7,29.88,SSW,202,0.0,3.6,59,0.00,,---,0.00,VWS V13.01,2013-01-20 11:35:00,
2013-01-20 13:40:00,63.3,48.7,29.88,SE,135,0.0,3.6,59,0.00,,---,0.00,VWS V13.01,2013-01-20 11:40:00,
2013-01-20 13:45:00,63.7,49.1,29.87,SSW,202,3.1,8.3,59,0.00,,---,0.00,VWS V13.01,2013-01-20 11:45:00,
2013-01-20 13:50:00,63.9,48.8,29.87,SSE,157,0.0,4.0,58,0.00,,---,0.00,VWS V13.01,2013-01-20 11:50:00,
2013-01-20 13:55:00,64.2,49.1,29.87,SE,135,0.0,1.8,58,0.00,,---,0.00,VWS V13.01,2013-01-20 11:55:00,
2013-01-20 14:00:00,64.4,49.3,29.87,SSW,202,6.0,6.9,58,0.00,,---,0.00,VWS V13.01,2013-01-20 12:00:00,
2013-01-20 14:05:00,64.6,49.5,29.87,SSW,202,3.8,4.0,58,0.00,,---,0.00,VWS V13.01,2013-01-20 12:05:00,
2013-01-20 14:10:00,64.9,49.8,29.87,SSW,202,3.6,3.6,58,0.00,,---,0.00,VWS V13.01,2013-01-20 12:10:00,
2013-01-20 14:15:00,65.1,50.0,29.87,South,180,0.0,3.4,58,0.00,,---,0.00,VWS V13.01,2013-01-20 12:15:00,
2013-01-20 14:20:00,65.1,49.5,29.87,WNW,292,0.0,6.3,57,0.00,,---,0.00,VWS V13.01,2013-01-20 12:20:00,
2013-01-20 14:25:00,65.5,49.9,29.87,SW,225,5.8,5.8,57,0.00,,---,0.00,VWS V13.01,2013-01-20 12:25:00,
2013-01-20 14:30:00,65.5,49.9,29.87,SSE,157,4.9,5.1,57,0.00,,---,0.00,VWS V13.01,2013-01-20 12:30:00,
2013-01-20 14:35:00,65.8,50.2,29.87,SW,225,4.7,5.4,57,0.00,,---,0.00,VWS V13.01,2013-01-20 12:35:00,
2013-01-20 14:40:00,65.8,50.2,29.87,South,180,4.0,7.6,57,0.00,,---,0.00,VWS V13.01,2013-01-20 12:40:00,
2013-01-20 14:45:00,66.0,49.9,29.88,SE,135,3.1,10.5,56,0.00,,---,0.00,VWS V13.01,2013-01-20 12:45:00,
2013-01-20 14:50:00,65.8,49.7,29.88,South,180,8.9,8.9,56,0.00,,---,0.00,VWS V13.01,2013-01-20 12:50:00,
2013-01-20 14:55:00,65.8,49.7,29.88,South,180,2.0,4.0,56,0.00,,---,0.00,VWS V13.01,2013-01-20 12:55:00,
2013-01-20 15:00:00,65.8,49.7,29.88,West,270,0.0,7.8,56,0.00,,---,0.00,VWS V13.01,2013-01-20 13:00:00,
2013-01-20 15:05:00,65.8,50.2,29.88,NW,315,0.0,4.9,57,0.00,,---,0.00,VWS V13.01,2013-01-20 13:05:00,
2013-01-20 15:10:00,65.8,50.2,29.88,SSW,202,2.2,2.5,57,0.00,,---,0.00,VWS V13.01,2013-01-20 13:10:00,
2013-01-20 15:15:00,65.8,50.2,29.88,WSW,247,1.6,7.4,57,0.00,,---,0.00,VWS V13.01,2013-01-20 13:15:00,
2013-01-20 15:20:00,65.8,50.6,29.88,SSW,202,6.9,6.9,58,0.00,,---,0.00,VWS V13.01,2013-01-20 13:20:00,
2013-01-20 15:25:00,65.8,50.6,29.88,South,180,2.0,6.5,58,0.00,,---,0.00,VWS V13.01,2013-01-20 13:25:00,
2013-01-20 15:30:00,65.7,51.0,29.88,ENE,67,0.0,6.9,59,0.00,,---,0.00,VWS V13.01,2013-01-20 13:30:00,
2013-01-20 15:35:00,65.5,50.8,29.88,SSW,202,4.5,5.1,59,0.00,,---,0.00,VWS V13.01,2013-01-20 13:35:00,
2013-01-20 15:40:00,65.5,51.3,29.88,ESE,112,0.0,2.9,60,0.00,,---,0.00,VWS V13.01,2013-01-20 13:40:00,
2013-01-20 15:45:00,65.5,51.3,29.88,SSE,157,0.0,2.5,60,0.00,,---,0.00,VWS V13.01,2013-01-20 13:45:00,
2013-01-20 15:50:00,65.5,51.3,29.88,South,180,0.7,1.1,60,0.00,,---,0.00,VWS V13.01,2013-01-20 13:50:00,
2013-01-20 15:55:00,65.3,51.1,29.88,SW,225,5.8,11.2,60,0.00,,---,0.00,VWS V13.01,2013-01-20 13:55:00,
2013-01-20 16:01:00,65.1,51.3,29.88,SSE,157,0.0,4.0,61,0.00,,---,0.00,VWS V13.01,2013-01-20 14:01:00,
2013-01-20 16:06:00,65.1,51.3,29.88,SSW,202,8.9,10.7,61,0.00,,---,0.00,VWS V13.01,2013-01-20 14:06:00,
2013-01-20 16:11:00,64.9,51.6,29.88,South,180,8.9,8.9,62,0.00,,---,0.00,VWS V13.01,2013-01-20 14:11:00,
2013-01-20 16:16:00,64.9,52.0,29.88,South,180,6.3,6.3,63,0.00,,---,0.00,VWS V13.01,2013-01-20 14:16:00,
2013-01-20 16:21:00,64.6,51.7,29.88,SSW,202,0.7,6.0,63,0.00,,---,0.00,VWS V13.01,2013-01-20 14:21:00,
2013-01-20 16:26:00,64.2,51.8,29.88,SSE,157,0.0,8.5,64,0.00,,---,0.00,VWS V13.01,2013-01-20 14:26:00,
2013-01-20 16:31:00,64.2,52.2,29.88,South,180,1.1,13.0,65,0.00,,---,0.00,VWS V13.01,2013-01-20 14:31:00,
2013-01-20 16:36:00,64.0,52.0,29.88,SSW,202,5.1,5.1,65,0.00,,---,0.00,VWS V13.01,2013-01-20 14:36:00,
2013-01-20 16:41:00,63.7,52.1,29.88,WNW,292,0.0,1.8,66,0.00,,---,0.00,VWS V13.01,2013-01-20 14:41:00,
2013-01-20 16:46:00,63.5,52.0,29.88,SW,225,0.9,0.9,66,0.00,,---,0.00,VWS V13.01,2013-01-20 14:46:00,
2013-01-20 16:51:00,63.3,52.2,29.88,SSW,202,3.4,3.4,67,0.00,,---,0.00,VWS V13.01,2013-01-20 14:51:00,
2013-01-20 16:56:00,63.1,52.4,29.88,SSW,202,0.0,5.1,68,0.00,,---,0.00,VWS V13.01,2013-01-20 14:56:00,
2013-01-20 17:01:00,63.0,52.3,29.88,South,180,0.0,3.6,68,0.00,,---,0.00,VWS V13.01,2013-01-20 15:01:00,
2013-01-20 17:06:00,62.8,52.1,29.88,South,180,0.0,3.4,68,0.00,,---,0.00,VWS V13.01,2013-01-20 15:06:00,
2013-01-20 17:11:00,62.4,52.1,29.88,South,180,0.0,0.9,69,0.00,,---,0.00,VWS V13.01,2013-01-20 15:11:00,
2013-01-20 17:16:00,62.4,52.1,29.88,South,180,1.3,3.4,69,0.00,,---,0.00,VWS V13.01,2013-01-20 15:16:00,
2013-01-20 17:21:00,62.2,52.3,29.88,South,180,0.0,2.9,70,0.00,,---,0.00,VWS V13.01,2013-01-20 15:21:00,
2013-01-20 17:26:00,61.9,52.0,29.89,South,180,1.3,1.3,70,0.00,,---,0.00,VWS V13.01,2013-01-20 15:26:00,
2013-01-20 17:31:00,61.7,52.2,29.88,South,180,0.0,3.1,71,0.00,,---,0.00,VWS V13.01,2013-01-20 15:31:00,
2013-01-20 17:36:00,61.5,52.0,29.89,South,180,3.4,4.3,71,0.00,,---,0.00,VWS V13.01,2013-01-20 15:36:00,
2013-01-20 17:41:00,61.3,51.8,29.88,SE,135,0.0,4.5,71,0.00,,---,0.00,VWS V13.01,2013-01-20 15:41:00,
2013-01-20 17:46:00,61.2,51.7,29.88,South,180,0.0,1.3,71,0.00,,---,0.00,VWS V13.01,2013-01-20 15:46:00,
2013-01-20 17:51:00,61.0,51.9,29.88,South,180,0.0,1.8,72,0.00,,---,0.00,VWS V13.01,2013-01-20 15:51:00,
2013-01-20 17:56:00,60.6,51.5,29.89,SSW,202,0.0,5.1,72,0.00,,---,0.00,VWS V13.01,2013-01-20 15:56:00,
2013-01-20 18:01:00,60.6,51.9,29.88,SSW,202,0.0,3.8,73,0.00,,---,0.00,VWS V13.01,2013-01-20 16:01:00,
2013-01-20 18:06:00,60.4,51.7,29.88,South,180,0.0,4.0,73,0.00,,---,0.00,VWS V13.01,2013-01-20 16:06:00,
2013-01-20 18:11:00,60.3,51.6,29.89,SSW,202,5.1,6.9,73,0.00,,---,0.00,VWS V13.01,2013-01-20 16:11:00,
2013-01-20 18:16:00,60.1,51.4,29.88,SSE,157,2.7,7.4,73,0.00,,---,0.00,VWS V13.01,2013-01-20 16:16:00,
2013-01-20 18:21:00,59.9,51.2,29.89,South,180,0.0,2.0,73,0.00,,---,0.00,VWS V13.01,2013-01-20 16:21:00,
2013-01-20 18:26:00,59.9,51.2,29.89,South,180,0.0,3.6,73,0.00,,---,0.00,VWS V13.01,2013-01-20 16:26:00,
2013-01-20 18:31:00,59.7,51.4,29.89,SSE,157,2.5,2.5,74,0.00,,---,0.00,VWS V13.01,2013-01-20 16:31:00,
2013-01-20 18:36:00,59.5,51.2,29.89,SSW,202,1.3,4.7,74,0.00,,---,0.00,VWS V13.01,2013-01-20 16:36:00,
2013-01-20 18:41:00,59.5,51.2,29.89,SE,135,0.0,4.7,74,0.00,,---,0.00,VWS V13.01,2013-01-20 16:41:00,
2013-01-20 18:47:00,59.4,51.1,29.89,South,180,0.0,1.6,74,0.00,,---,0.00,VWS V13.01,2013-01-20 16:47:00,
2013-01-20 18:52:00,59.4,51.5,29.89,South,180,0.9,4.9,75,0.00,,---,0.00,VWS V13.01,2013-01-20 16:52:00,
2013-01-20 18:57:00,59.2,51.3,29.89,SSE,157,2.2,2.2,75,0.00,,---,0.00,VWS V13.01,2013-01-20 16:57:00,
2013-01-20 19:02:00,59.2,51.3,29.89,South,180,0.0,6.0,75,0.00,,---,0.02,VWS V13.01,2013-01-20 17:02:00,
2013-01-20 19:07:00,59.0,51.1,29.89,South,180,3.1,3.4,75,0.00,,---,0.00,VWS V13.01,2013-01-20 17:07:00,
2013-01-20 19:12:00,58.8,50.9,29.89,SSW,202,2.7,2.7,75,0.00,,---,0.00,VWS V13.01,2013-01-20 17:12:00,
2013-01-20 19:17:00,58.8,50.9,29.89,SSE,157,6.7,7.2,75,0.00,,---,0.00,VWS V13.01,2013-01-20 17:17:00,
2013-01-20 19:22:00,58.8,51.3,29.90,South,180,4.0,4.0,76,0.00,,---,0.00,VWS V13.01,2013-01-20 17:22:00,
2013-01-20 19:27:00,58.6,51.1,29.90,SSE,157,0.0,3.1,76,0.00,,---,0.00,VWS V13.01,2013-01-20 17:27:00,
2013-01-20 19:32:00,58.6,51.1,29.90,South,180,1.3,1.3,76,0.00,,---,0.00,VWS V13.01,2013-01-20 17:32:00,
2013-01-20 19:37:00,58.6,51.1,29.90,WNW,292,0.0,3.4,76,0.00,,---,0.00,VWS V13.01,2013-01-20 17:37:00,
2013-01-20 19:42:00,58.6,51.4,29.90,SSE,157,0.0,4.5,77,0.00,,---,0.00,VWS V13.01,2013-01-20 17:42:00,
2013-01-20 19:47:00,58.5,51.3,29.90,South,180,0.0,4.5,77,0.00,,---,0.00,VWS V13.01,2013-01-20 17:47:00,
2013-01-20 19:52:00,58.3,51.1,29.90,SSE,157,0.0,2.5,77,0.00,,---,0.00,VWS V13.01,2013-01-20 17:52:00,
2013-01-20 19:57:00,58.3,51.1,29.89,SSW,202,0.0,6.9,77,0.00,,---,0.00,VWS V13.01,2013-01-20 17:57:00,
2013-01-20 20:02:00,58.1,50.9,29.90,South,180,0.0,2.0,77,0.00,,---,0.00,VWS V13.01,2013-01-20 18:02:00,
2013-01-20 20:07:00,58.1,50.9,29.90,South,180,3.1,3.1,77,0.00,,---,0.00,VWS V13.01,2013-01-20 18:07:00,
2013-01-20 20:12:00,57.9,50.7,29.90,South,180,1.6,4.3,77,0.00,,---,0.00,VWS V13.01,2013-01-20 18:12:00,
2013-01-20 20:17:00,57.9,51.1,29.90,SSW,202,2.9,3.8,78,0.00,,---,0.00,VWS V13.01,2013-01-20 18:17:00,
2013-01-20 20:22:00,57.9,51.1,29.90,SSE,157,3.1,3.1,78,0.00,,---,0.00,VWS V13.01,2013-01-20 18:22:00,
2013-01-20 20:27:00,57.9,51.1,29.90,SSW,202,2.9,4.7,78,0.00,,---,0.00,VWS V13.01,2013-01-20 18:27:00,
2013-01-20 20:32:00,57.9,51.1,29.90,South,180,0.0,1.8,78,0.00,,---,0.00,VWS V13.01,2013-01-20 18:32:00,
2013-01-20 20:37:00,57.9,51.1,29.90,SSE,157,2.7,3.1,78,0.00,,---,0.00,VWS V13.01,2013-01-20 18:37:00,
2013-01-20 20:42:00,57.9,51.4,29.90,South,180,2.9,3.1,79,0.00,,---,0.00,VWS V13.01,2013-01-20 18:42:00,
2013-01-20 20:47:00,57.9,51.4,29.89,South,180,4.0,4.7,79,0.00,,---,0.00,VWS V13.01,2013-01-20 18:47:00,
2013-01-20 20:52:00,57.9,51.4,29.89,SSE,157,3.8,5.6,79,0.00,,---,0.00,VWS V13.01,2013-01-20 18:52:00,
2013-01-20 20:57:00,57.9,51.4,29.89,SSW,202,8.5,8.5,79,0.00,,---,0.00,VWS V13.01,2013-01-20 18:57:00,
2013-01-20 21:02:00,57.9,51.4,29.89,SE,135,2.2,4.0,79,0.00,,---,0.00,VWS V13.01,2013-01-20 19:02:00,
2013-01-20 21:07:00,57.9,51.4,29.90,SSE,157,2.2,2.2,79,0.00,,---,0.00,VWS V13.01,2013-01-20 19:07:00,
2013-01-20 21:13:00,57.9,51.8,29.90,South,180,0.0,4.0,80,0.00,,---,0.00,VWS V13.01,2013-01-20 19:13:00,
2013-01-20 21:18:00,57.9,51.8,29.90,South,180,0.0,4.7,80,0.00,,---,0.00,VWS V13.01,2013-01-20 19:18:00,
2013-01-20 21:23:00,57.9,51.8,29.90,West,270,0.0,4.0,80,0.00,,---,0.00,VWS V13.01,2013-01-20 19:23:00,
2013-01-20 21:28:00,57.7,51.6,29.90,SW,225,4.9,6.7,80,0.00,,---,0.00,VWS V13.01,2013-01-20 19:28:00,
2013-01-20 21:33:00,57.7,51.6,29.90,South,180,4.0,9.4,80,0.00,,---,0.00,VWS V13.01,2013-01-20 19:33:00,
2013-01-20 21:38:00,57.6,51.8,29.91,SW,225,0.0,6.7,81,0.00,,---,0.00,VWS V13.01,2013-01-20 19:38:00,
2013-01-20 21:43:00,57.6,51.8,29.90,SSW,202,2.0,3.6,81,0.00,,---,0.00,VWS V13.01,2013-01-20 19:43:00,
2013-01-20 21:48:00,57.6,51.8,29.90,SSW,202,0.0,3.6,81,0.00,,---,0.00,VWS V13.01,2013-01-20 19:48:00,
2013-01-20 21:53:00,57.4,51.6,29.91,SSW,202,0.0,2.5,81,0.00,,---,0.00,VWS V13.01,2013-01-20 19:53:00,
2013-01-20 21:58:00,57.4,51.6,29.91,SSE,157,0.0,1.1,81,0.00,,---,0.00,VWS V13.01,2013-01-20 19:58:00,
2013-01-20 22:03:00,57.2,51.4,29.91,SSW,202,3.1,6.9,81,0.00,,---,0.00,VWS V13.01,2013-01-20 20:03:00,
2013-01-20 22:08:00,57.0,51.2,29.90,SW,225,0.0,1.3,81,0.00,,---,0.00,VWS V13.01,2013-01-20 20:08:00,
2013-01-20 22:13:00,57.0,51.2,29.91,WSW,247,0.0,3.6,81,0.00,,---,0.00,VWS V13.01,2013-01-20 20:13:00,
2013-01-20 22:18:00,57.0,51.2,29.91,ESE,112,0.0,2.5,81,0.00,,---,0.00,VWS V13.01,2013-01-20 20:18:00,
2013-01-20 22:23:00,57.0,51.2,29.91,NW,315,0.0,2.5,81,0.00,,---,0.00,VWS V13.01,2013-01-20 20:23:00,
2013-01-20 22:28:00,56.8,51.0,29.91,ESE,112,0.0,2.9,81,0.00,,---,0.00,VWS V13.01,2013-01-20 20:28:00,
2013-01-20 22:33:00,56.8,51.0,29.91,West,270,0.0,2.9,81,0.00,,---,0.00,VWS V13.01,2013-01-20 20:33:00,
2013-01-20 22:38:00,56.8,51.4,29.91,West,270,0.0,2.2,82,0.00,,---,0.00,VWS V13.01,2013-01-20 20:38:00,
2013-01-20 22:43:00,56.5,51.1,29.91,NNW,337,0.0,2.2,82,0.00,,---,0.00,VWS V13.01,2013-01-20 20:43:00,
2013-01-20 22:48:00,56.5,51.1,29.91,NNW,337,0.0,2.2,82,0.00,,---,0.00,VWS V13.01,2013-01-20 20:48:00,
2013-01-20 22:53:00,56.5,51.1,29.91,North,0,0.0,2.2,82,0.00,,---,0.00,VWS V13.01,2013-01-20 20:53:00,
2013-01-20 22:58:00,56.3,50.9,29.90,NNW,337,0.0,2.2,82,0.00,,---,0.00,VWS V13.01,2013-01-20 20:58:00,
2013-01-20 23:03:00,56.1,50.7,29.91,WSW,247,0.0,2.2,82,0.00,,---,0.00,VWS V13.01,2013-01-20 21:03:00,
2013-01-20 23:08:00,56.1,50.7,29.91,SW,225,0.0,2.2,82,0.00,,---,0.00,VWS V13.01,2013-01-20 21:08:00,
2013-01-20 23:13:00,55.9,50.5,29.91,NE,45,0.0,2.2,82,0.00,,---,0.00,VWS V13.01,2013-01-20 21:13:00,
2013-01-20 23:18:00,55.8,50.4,29.91,NE,45,0.0,1.3,82,0.00,,---,0.00,VWS V13.01,2013-01-20 21:18:00,
2013-01-20 23:23:00,55.6,49.9,29.91,SSW,202,0.0,2.7,81,0.00,,---,0.00,VWS V13.01,2013-01-20 21:23:00,
2013-01-20 23:28:00,55.6,50.2,29.91,South,180,0.0,1.8,82,0.00,,---,0.00,VWS V13.01,2013-01-20 21:28:00,
2013-01-20 23:33:00,55.4,50.0,29.91,SSE,157,0.0,6.3,82,0.00,,---,0.00,VWS V13.01,2013-01-20 21:33:00,
2013-01-20 23:38:00,55.4,50.0,29.90,ESE,112,0.0,5.8,82,0.00,,---,0.00,VWS V13.01,2013-01-20 21:38:00,
2013-01-20 23:43:00,55.4,49.7,29.90,SSW,202,6.9,8.1,81,0.00,,---,0.00,VWS V13.01,2013-01-20 21:43:00,
2013-01-20 23:48:00,55.6,49.9,29.89,South,180,3.8,5.4,81,0.00,,---,0.00,VWS V13.01,2013-01-20 21:48:00,
2013-01-20 23:53:00,55.8,50.1,29.89,South,180,4.0,6.0,81,0.00,,---,0.00,VWS V13.01,2013-01-20 21:53:00,
2013-01-20 23:58:00,55.9,50.2,29.89,SE,135,0.0,2.0,81,0.00,,---,0.00,VWS V13.01,2013-01-20 21:58:00,